レモン彗星

C/2017 S7 ( Lemmon )

English version
Home page
Updated on May 20, 2019

---------------------------------------------------------------------

・ プロフィール

発見日 2017年9月26日
発見光度 19.6等
発見者 R. G. Matheny (Mount Lemmon survey)

・ 写真集

・ 軌道要素

Epoch 2017 June 16.0 TT = JDT 2457920.5
T 2017 May 27.98869 TT                                  MPCW
q   7.6144442            (2000.0)            P               Q
z  -0.0003058      Peri.  187.75361     +0.19968340     +0.53587658
 +/-0.0000014      Node   262.78685     +0.93753418     +0.13891635
e   1.0023282      Incl.  124.21971     +0.28487926     -0.83278961
From 148 observations 2016 Dec. 18-2018 Nov. 15, mean residual 0".4.

・ 光度変化

        m1 = 6.2 + 5 logΔ + 10.0 log r

---------------------------------------------------------------------

軌道要素はM.P.E.C. 2019-J142に掲載されたものです。
光度グラフはComet for Windowsで作成したものです。

---------------------------------------------------------------------

Copyright(C) Seiichi Yoshida (comet@aerith.net). All rights reserved.